Temperature
13 14 14 15 15 16 18 21 22 22 22 21 21 21 21 21 21 18 16 16 16 16 17 16 16 17 17 17 17 17 17 17 17 17 17 17 17 17 17 17 16 16 16 16 16 16 16 16 16
13 13 14 15 15 17 19 20 21 21 20 20 20 21 21 21 19 17 16 16 16 16 16 16 16 16 16 16 17 17 17 16 17 17 17 17 17 17 17 16 16 16 16 16 16 16 16 16 16
13 13 15 16 16 18 20 21 20 20 19 19 20 20 20 20 18 17 16 16 16 16 16 16 16 16 16 16 16 16 16 16 16 16 16 16 16 16 16 16 16 16 16 16 16 16 16 16 16
13 14 15 15 17 19 20 20 19 19 19 19 19 19 19 18 17 16 16 16 16 16 16 16 16 16 16 16 16 16 16 16 16 16 16 16 16 16 16 16 16 16 16 16 16 16 16 16 16
13 14 14 15 17 18 19 19 19 19 19 19 18 18 18 17 16 16 15 15 15 15 15 16 16 16 16 16 16 16 16 16 16 16 16 16 16 16 16 16 16 16 16 16 16 16 16 16 16
13 15 14 15 17 18 19 18 18 18 18 19 18 18 17 16 16 15 15 15 15 15 15 15 15 15 16 16 16 16 16 16 16 16 16 16 16 16 16 16 16 16 16 16 16 16 16 16 16
14 14 15 17 17 18 18 17 17 17 17 18 17 17 17 15 15 15 14 15 15 15 15 15 15 15 15 15 16 16 16 16 16 16 16 16 16 16 16 16 16 16 16 16 16 15 16 16 15
13 14 15 16 17 17 17 16 16 16 16 16 16 16 16 14 14 14 14 14 14 14 14 15 15 15 15 15 15 15 15 16 16 16 15 15 16 16 16 16 16 16 16 15 15 15 15 15 15
12 13 14 16 16 16 16 16 15 15 15 15 15 15 14 14 14 13 13 14 14 13 14 14 14 14 15 15 15 15 15 15 15 15 15 15 15 15 15 15 15 15 15 15 15 15 15 15 15
12 12 14 15 15 15 15 14 14 14 14 15 14 14 14 13 13 13 13 13 13 13 13 13 14 14 14 14 15 15 15 15 15 15 15 15 15 15 15 15 15 15 15 15 15 15 15 15 15
13 13 14 14 13 13 13 13 14 14 13 14 14 14 13 13 13 12 12 12 12 12 12 13 13 13 13 14 14 14 14 14 15 15 15 15 15 15 15 15 15 15 15 15 15 15 15 15 15
12 13 13 13 12 12 12 13 13 13 13 13 13 13 12 12 12 12 12 11 11 11 12 12 12 12 13 13 13 14 14 14 14 14 14 14 14 15 15 15 15 15 15 15 15 15 14 14 14
12 12 12 12 12 12 12 12 12 12 12 12 12 12 12 12 12 11 11 11 11 11 11 11 12 12 12 12 13 13 13 13 14 14 14 14 14 14 14 14 15 15 15 15 15 14 14 14 14
12 12 12 12 12 12 12 12 12 12 12 12 12 12 12 11 11 11 11 10 10 10 11 11 11 11 12 12 12 12 12 13 13 13 13 14 14 14 14 14 14 14 14 14 14 14 14 14 14
11 11 11 12 12 12 11 11 12 12 12 12 12 12 11 11 11 10 10 10 10 10 10 10 10 11 11 11 11 12 12 12 13 13 13 13 13 14 14 14 14 14 14 14 14 14 14 14 14
11 11 11 12 12 12 10 10 12 12 12 12 12 12 11 11 11 10 10 10 9 9 10 10 10 10 10 11 11 11 11 12 12 12 13 13 13 13 13 13 14 14 14 14 14 14 14 13 13
10 10 11 12 12 12 11 10 11 12 12 11 11 11 11 11 10 10 9 9 9 9 9 9 9 10 10 10 10 10 11 11 11 12 12 12 13 13 13 13 13 13 13 13 13 13 13 13 13
9 10 11 11 12 12 11 11 11 11 11 11 11 10 10 10 9 9 9 8 8 8 8 9 9 9 9 9 10 10 10 10 11 11 12 12 12 12 12 13 13 13 13 13 13 13 13 13 13
10 10 10 11 12 11 10 10 11 11 11 11 10 10 9 9 9 8 8 8 8 8 8 8 8 8 8 9 9 9 10 10 11 11 11 11 12 12 12 12 12 12 12 13 13 12 12 12 12
10 9 10 11 11 11 10 10 11 11 11 10 10 9 9 8 8 7 7 7 7 7 7 7 7 8 8 8 8 8 9 9 10 10 11 11 11 11 11 12 12 12 12 12 12 12 12 12 12
10 9 9 9 10 10 10 9 10 11 11 10 9 9 8 7 7 6 6 7 7 7 7 7 7 7 7 8 8 8 8 9 9 10 10 10 11 11 11 11 11 11 11 11 11 11 12 11 11
9 10 10 9 8 8 9 8 9 10 10 9 9 8 7 6 6 6 6 6 6 6 6 6 6 7 7 7 7 8 8 8 9 9 9 10 10 10 10 10 10 11 11 11 11 11 11 11 11
9 10 9 9 8 8 9 8 9 10 9 9 8 8 7 6 5 5 5 5 5 5 5 6 6 6 6 7 7 7 7 7 8 8 8 9 9 9 10 10 10 10 10 10 10 10 10 10 10
9 9 9 9 8 7 9 8 9 9 8 8 8 7 6 6 5 5 5 5 5 5 5 5 5 6 6 6 6 6 7 7 7 7 8 8 8 9 9 9 10 10 10 10 10 10 10 10 10
9 7 7 8 8 9 10 9 8 9 9 8 7 7 6 5 5 4 4 4 4 5 5 5 5 5 5 6 6 6 6 6 7 7 7 7 8 8 8 8 9 9 9 9 9 9 9 9 9
8 8 7 7 8 9 9 8 9 9 9 8 7 6 6 5 4 4 4 4 4 4 4 4 5 5 5 5 5 5 5 6 6 6 6 7 7 7 7 8 8 8 8 9 9 9 9 9 9
8 8 8 7 7 7 9 10 9 8 8 7 7 6 5 5 4 4 4 4 4 4 4 4 4 5 5 5 5 5 5 5 5 6 6 6 6 6 7 7 7 8 8 8 8 8 8 8 8
8 8 7 7 7 8 9 10 8 7 7 7 7 6 5 5 4 4 3 3 3 3 4 4 4 4 4 4 4 5 5 5 5 5 5 6 6 6 6 7 7 7 7 7 7 7 7 7 7
8 8 7 7 7 7 8 8 9 8 7 7 6 6 5 5 4 4 3 3 3 3 3 4 4 4 4 4 4 4 4 5 5 5 5 5 6 6 6 6 6 6 6 6 6 6 6 6 6
8 8 8 7 7 7 7 7 9 8 7 7 6 6 5 4 4 4 3 3 3 3 3 3 3 4 4 4 4 4 4 4 5 5 5 5 5 5 5 5 6 6 5 5 6 6 6 6 6
Wind_Speed
10 11 7 3 3 5 8 6 3 1 2 5 7 5 5 4 4 6 5 7 6 6 8 7 5 5 5 5 6 6 8 10 11 11 11 11 11 11 11 10 10 10 10 10 11 11 12 12 11
11 7 5 3 4 6 6 6 4 2 5 6 5 4 3 2 6 7 5 6 6 7 8 6 5 4 4 5 5 5 6 9 10 11 11 11 11 12 12 11 11 10 10 10 11 11 12 11 11
9 7 4 4 5 5 1 1 4 6 7 3 1 2 3 3 5 5 5 6 6 6 7 7 6 3 3 4 4 5 6 7 9 10 11 11 12 12 12 12 12 11 10 10 11 12 12 12 11
4 4 4 5 10 6 2 5 6 5 4 1 1 1 1 5 4 5 6 7 6 5 7 7 6 3 2 2 4 5 5 6 7 9 9 10 11 12 12 12 12 12 11 11 11 12 12 12 11
4 4 5 7 9 6 1 5 4 1 2 2 2 2 1 5 8 8 8 7 6 4 5 5 4 2 1 1 3 5 5 6 6 8 9 9 10 12 13 13 13 12 12 12 12 12 12 12 11
3 4 5 8 8 6 3 3 1 2 2 1 1 3 0 5 8 7 7 6 5 3 4 2 2 1 1 2 3 5 6 6 6 7 9 10 9 11 12 13 14 13 13 13 13 13 12 12 11
4 4 7 7 5 4 3 4 0 2 3 1 2 3 1 6 7 7 6 6 6 4 2 2 1 1 2 3 4 5 6 7 7 7 8 10 10 10 12 14 15 14 14 14 14 14 12 12 11
4 4 6 6 5 2 3 3 1 4 4 3 2 2 0 4 6 6 6 6 5 4 3 2 2 2 3 3 5 6 7 8 8 8 8 9 10 11 11 13 15 15 15 15 15 14 13 12 11
4 4 5 4 2 1 5 2 1 3 4 4 3 3 3 6 6 5 5 5 5 5 4 3 3 3 4 4 6 7 8 10 10 9 9 9 9 10 11 13 15 16 16 15 15 15 14 13 12
4 4 3 3 5 3 3 2 2 2 6 5 4 3 4 5 5 5 5 5 5 5 5 4 4 3 4 5 4 5 7 7 9 8 9 9 10 10 11 13 16 17 16 16 16 15 15 13 10
4 4 1 3 6 5 3 3 3 5 6 5 4 5 5 5 6 6 6 5 5 6 6 5 5 4 3 3 3 3 5 5 7 8 9 9 8 8 8 8 10 13 14 13 13 14 12 12 10
4 4 3 1 3 3 4 4 5 7 7 6 6 7 7 7 6 6 7 6 5 6 6 6 5 5 4 4 3 3 3 3 4 6 8 6 4 4 5 5 8 9 10 9 9 9 10 11 11
7 4 3 3 3 5 6 8 8 9 8 7 7 7 7 7 6 6 6 6 6 6 6 6 6 6 4 4 4 4 3 3 4 5 7 6 4 5 4 5 6 7 8 8 7 7 7 7 8
2 4 5 5 5 5 7 8 7 7 5 6 6 6 6 6 6 6 5 6 6 6 6 6 6 5 4 4 4 4 3 3 4 4 5 7 4 4 5 5 5 6 7 8 8 7 7 6 6
3 5 6 7 6 3 3 7 7 7 5 6 6 6 5 5 4 5 5 6 6 7 6 6 6 5 4 5 5 4 3 3 3 4 6 6 5 4 4 5 6 5 7 7 6 7 5 6 6
5 5 5 5 5 4 3 6 3 1 3 5 5 5 5 4 4 4 5 5 5 6 6 6 7 5 4 4 5 4 3 4 3 4 4 6 6 6 5 5 5 5 6 5 5 6 5 5 5
4 4 4 2 6 4 5 6 4 3 3 5 5 5 4 4 4 5 6 6 5 5 6 6 5 5 4 4 4 4 3 3 3 3 3 4 6 7 5 5 4 5 4 5 5 5 5 5 5
2 3 3 3 3 3 7 8 5 3 4 4 3 4 5 5 5 6 6 6 5 5 5 6 6 5 4 3 3 3 3 3 3 3 3 4 4 6 5 5 5 5 5 5 5 5 5 5 5
2 4 5 4 2 3 7 9 6 4 3 3 3 4 4 5 5 6 6 6 6 6 5 5 5 5 3 2 3 3 3 3 3 3 4 4 4 5 4 5 5 5 5 6 6 4 5 5 4
4 5 5 3 3 5 8 9 5 2 1 2 3 4 5 6 7 8 8 7 6 6 6 5 5 5 4 3 3 3 3 3 4 3 3 4 4 4 5 5 5 5 5 5 6 5 4 4 5
4 4 3 4 6 6 5 5 3 3 2 3 3 3 5 6 7 9 9 8 8 7 6 6 6 6 5 4 2 3 2 3 3 3 3 4 3 4 4 5 5 5 5 5 6 7 6 5 5
3 3 4 5 4 3 2 4 3 3 1 2 3 4 5 6 7 8 9 10 9 8 6 6 6 6 5 4 3 3 3 4 4 3 3 3 3 4 4 4 4 5 5 5 6 5 5 6 5
2 4 6 6 4 4 5 4 4 3 1 2 4 4 5 6 7 8 10 9 9 8 6 6 6 6 5 4 3 3 3 3 2 2 2 3 3 3 3 4 3 4 4 5 5 4 5 5 5
3 4 5 3 2 4 5 5 3 1 0 2 3 4 4 6 7 8 9 8 8 8 7 6 5 5 4 3 2 2 3 2 2 2 3 2 2 2 2 3 3 3 3 4 5 5 5 5 5
1 2 1 1 3 4 4 3 3 2 4 2 3 4 4 5 6 7 9 9 9 9 8 7 5 5 4 3 2 2 3 2 2 2 2 2 1 1 2 2 2 2 2 3 4 4 5 5 5
2 1 1 2 2 2 1 3 1 5 5 4 3 3 4 5 6 7 7 8 8 9 8 7 6 5 4 3 3 3 3 2 2 2 2 2 1 2 2 2 2 1 1 2 2 3 4 4 4
1 1 1 2 4 3 4 2 3 4 3 2 3 4 4 5 6 7 8 7 8 8 8 6 6 6 5 4 3 2 2 2 2 2 2 2 2 2 2 2 1 1 1 2 2 2 3 3 3
2 3 2 2 3 3 3 2 1 1 0 1 3 3 4 5 6 7 7 7 7 7 7 6 6 5 4 4 3 3 3 3 2 2 2 2 2 2 2 2 1 1 1 2 2 2 3 3 4
3 2 2 3 3 2 3 2 2 3 2 0 2 3 3 4 5 6 6 6 6 7 7 7 6 5 5 5 4 3 3 3 3 3 2 2 2 2 2 2 1 1 1 2 1 2 3 4 4
2 2 2 2 3 2 3 3 3 4 3 1 0 2 3 3 4 4 5 6 7 7 7 7 7 6 5 5 5 4 4 4 4 4 3 3 3 3 3 2 1 1 0 0 1 2 3 4 4
Wind_Direction
283 262 247 228 223 228 236 233 225 113 38 27 19 4 353 359 25 88 102 34 30 68 82 99 108 112 119 126 128 145 162 168 171 171 172 173 170 167 163 161 157 151 149 146 141 135 130 126 122
280 249 233 225 232 226 227 216 207 96 69 37 16 337 328 48 76 93 78 33 31 62 78 77 98 114 125 133 141 144 156 169 175 179 179 180 179 176 172 169 164 158 156 151 144 138 134 132 129
270 251 228 219 229 235 242 109 103 92 76 52 31 337 330 25 60 77 67 31 32 53 71 78 82 98 132 145 149 157 159 169 176 182 185 186 186 184 179 175 170 165 163 158 150 145 143 139 137
240 226 246 241 236 243 288 57 55 86 100 101 321 255 96 56 52 64 52 27 25 45 54 79 82 81 118 154 164 168 171 178 181 182 185 191 192 191 184 177 172 168 166 163 156 153 151 147 145
242 233 223 233 238 244 309 55 55 76 138 167 238 269 54 74 72 53 36 15 11 26 37 75 85 81 119 189 188 184 184 188 191 190 191 192 195 196 189 181 176 171 170 166 161 157 155 154 154
229 236 229 228 227 221 182 97 71 265 237 198 227 275 49 80 61 34 20 356 353 9 19 49 99 105 192 216 210 205 202 198 200 203 202 198 197 197 192 186 180 176 176 172 168 164 163 163 163
245 235 245 250 238 216 146 103 181 283 275 311 10 301 154 71 52 29 6 348 343 351 357 344 312 242 228 225 225 216 214 210 210 212 208 201 198 194 193 189 184 181 180 177 174 171 171 171 172
281 274 252 250 245 236 88 91 48 312 302 358 2 270 279 50 41 20 351 340 335 331 327 323 315 287 264 249 237 225 221 218 217 217 211 204 200 197 193 192 188 185 183 180 178 177 176 177 178
283 256 246 251 270 86 84 71 26 345 293 285 279 278 336 355 358 350 330 327 325 323 319 306 297 289 274 253 244 233 226 219 217 214 211 205 203 201 197 196 191 188 186 185 182 182 182 181 185
238 243 246 356 10 26 41 355 336 283 265 262 264 280 306 313 312 307 304 306 313 313 310 304 294 285 286 270 259 242 236 224 213 209 206 204 207 205 201 195 192 190 187 187 188 187 186 185 187
231 251 289 2 10 1 345 304 284 273 263 264 275 292 308 305 301 301 297 296 299 304 305 307 300 288 274 270 257 244 236 229 222 216 209 207 206 198 193 181 184 188 187 188 191 189 193 195 191
238 250 273 310 0 322 301 293 281 262 271 302 312 311 303 296 294 294 294 295 293 295 296 298 291 284 267 265 257 243 233 224 220 220 214 206 198 190 184 180 178 183 189 188 187 194 200 203 201
226 241 259 279 272 269 271 266 272 269 278 287 287 286 286 290 291 292 292 294 295 291 290 294 287 275 269 256 249 244 233 233 231 224 216 210 197 195 192 186 183 186 188 186 187 196 200 203 206
236 259 265 254 248 251 260 268 258 260 268 272 271 275 280 285 292 295 299 294 292 291 290 286 280 272 266 261 250 241 234 239 240 230 223 212 202 198 192 191 187 189 190 190 191 197 199 202 202
258 246 246 228 220 215 277 268 239 248 266 270 273 280 282 282 291 299 302 298 296 294 292 287 278 269 267 269 263 256 244 234 233 233 225 218 203 197 199 195 190 193 192 196 196 199 198 200 202
222 234 231 190 192 182 217 268 279 290 276 281 292 293 295 293 294 306 307 302 298 297 295 292 290 285 266 263 268 263 255 244 232 233 226 220 211 199 198 201 196 194 191 191 199 195 196 201 200
202 236 242 193 182 197 228 266 300 329 307 302 305 312 323 329 340 344 332 325 318 312 307 299 286 277 267 257 257 259 258 250 246 238 228 221 215 202 191 199 199 193 193 191 201 200 191 200 205
220 250 252 252 197 241 254 265 279 292 282 285 312 334 334 337 341 342 341 338 323 317 313 308 303 290 278 258 249 250 255 249 250 238 236 230 223 210 197 197 198 195 196 193 192 202 196 197 202
298 275 272 276 297 294 263 272 281 284 287 316 338 339 339 348 351 351 347 340 332 331 324 314 305 295 287 267 256 249 252 249 247 237 233 233 228 217 201 205 203 198 200 197 191 198 199 203 196
264 272 280 296 332 295 273 278 272 246 227 16 1 3 4 357 356 352 346 341 338 330 324 323 316 305 293 278 263 253 251 246 240 239 236 232 224 215 208 204 203 204 202 198 196 191 201 203 191
275 266 286 311 315 270 276 280 199 147 110 39 24 23 15 0 353 346 340 343 341 335 332 325 319 314 308 297 282 272 267 260 244 242 237 229 221 216 208 209 211 209 201 202 202 198 197 203 205
282 334 313 300 305 287 289 287 229 180 150 15 13 25 15 7 358 348 345 345 341 334 330 327 319 315 308 299 281 259 250 251 254 251 243 238 225 219 214 218 220 215 206 204 207 203 201 194 202
288 317 290 278 279 289 237 242 260 156 221 344 9 15 8 10 1 350 346 341 337 333 331 325 319 318 310 297 283 270 264 264 276 277 256 245 237 228 213 211 215 218 207 203 200 206 207 202 201
284 291 272 239 251 266 219 212 268 163 170 352 7 10 7 7 359 352 346 344 341 337 333 327 325 322 323 319 316 293 279 278 281 274 260 252 243 239 233 217 208 218 213 202 200 200 203 209 212
277 328 335 221 225 246 177 200 251 90 83 56 13 0 8 9 1 353 349 349 346 342 341 338 339 342 342 341 332 310 294 276 269 280 269 263 268 263 255 250 229 226 222 204 195 196 202 206 207
294 290 334 293 284 316 241 229 179 92 81 63 32 16 15 8 359 351 350 349 343 340 342 346 347 347 347 351 342 318 294 280 277 293 284 273 271 273 266 254 243 254 262 209 185 189 204 206 210
308 292 18 290 281 260 237 193 127 81 70 43 15 12 7 4 360 355 353 350 348 347 347 345 353 360 4 1 348 332 313 313 325 322 306 296 301 284 256 241 224 231 256 219 198 198 203 204 214
283 321 305 280 305 292 274 226 222 123 297 357 0 353 0 9 1 355 355 354 354 353 349 356 5 1 355 349 348 353 352 355 352 336 341 340 322 322 284 261 216 209 255 225 204 210 205 206 220
192 222 253 269 269 285 296 299 74 139 141 359 334 346 7 2 356 358 356 353 358 0 3 6 6 3 3 2 5 9 4 7 6 360 355 351 350 337 305 274 221 202 261 234 205 241 226 219 226
255 246 222 274 289 265 274 277 91 102 121 137 296 343 2 358 357 356 356 360 3 5 5 6 6 7 7 7 9 14 15 19 17 6 356 0 355 340 343 335 22 14 333 154 189 251 248 235 232
Height
1495 1498 1501 1505 1507 1507 1500 1488 1481 1483 1484 1488 1489 1490 1492 1495 1499 1509 1510 1507 1507 1506 1505 1506 1507 1509 1510 1512 1514 1515 1517 1519 1520 1522 1523 1525 1526 1527 1529 1530 1531 1532 1533 1534 1535 1536 1537 1538 1539
1495 1499 1503 1504 1505 1505 1494 1484 1483 1484 1488 1490 1492 1494 1494 1497 1500 1504 1506 1506 1506 1506 1505 1506 1507 1508 1510 1512 1513 1515 1517 1518 1520 1522 1523 1525 1526 1527 1529 1530 1531 1532 1534 1535 1536 1537 1538 1539 1540
1496 1499 1503 1501 1499 1496 1488 1481 1482 1486 1490 1493 1495 1496 1497 1500 1502 1504 1505 1505 1506 1506 1506 1506 1507 1508 1510 1511 1513 1514 1516 1518 1519 1521 1523 1524 1526 1527 1528 1530 1531 1533 1534 1535 1536 1537 1538 1539 1540
1498 1501 1501 1500 1494 1487 1483 1483 1484 1488 1492 1495 1497 1498 1499 1502 1503 1504 1504 1505 1506 1506 1506 1506 1507 1508 1509 1510 1512 1513 1515 1517 1518 1520 1522 1523 1525 1526 1528 1530 1531 1532 1534 1535 1536 1537 1538 1540 1541
1498 1499 1499 1497 1490 1485 1483 1485 1487 1489 1492 1495 1497 1498 1500 1502 1502 1503 1503 1504 1505 1505 1505 1506 1506 1507 1508 1509 1511 1512 1514 1515 1517 1519 1520 1522 1524 1525 1527 1529 1530 1532 1533 1534 1536 1537 1538 1539 1541
1498 1496 1497 1495 1487 1483 1484 1487 1490 1491 1493 1495 1497 1498 1500 1501 1501 1502 1503 1503 1504 1504 1504 1505 1505 1506 1507 1508 1509 1511 1512 1514 1516 1517 1519 1520 1522 1524 1526 1527 1529 1531 1532 1534 1535 1536 1538 1539 1540
1496 1494 1492 1486 1484 1483 1484 1488 1491 1493 1494 1496 1497 1499 1500 1500 1500 1501 1501 1502 1503 1503 1503 1503 1504 1504 1505 1506 1507 1509 1510 1512 1514 1515 1517 1519 1520 1522 1524 1526 1528 1529 1531 1532 1534 1536 1537 1538 1540
1494 1493 1488 1485 1484 1484 1486 1489 1492 1494 1495 1496 1498 1498 1499 1499 1499 1499 1500 1501 1501 1501 1501 1501 1502 1502 1503 1504 1505 1506 1508 1510 1511 1513 1515 1517 1518 1520 1522 1524 1526 1527 1529 1531 1533 1534 1536 1537 1539
1494 1496 1490 1485 1484 1486 1488 1491 1493 1495 1496 1496 1497 1498 1498 1497 1497 1498 1498 1498 1499 1499 1499 1499 1499 1500 1500 1501 1502 1503 1505 1507 1509 1510 1512 1514 1516 1518 1520 1522 1524 1526 1527 1529 1531 1533 1535 1536 1537
1493 1494 1489 1487 1487 1488 1490 1492 1494 1495 1495 1495 1496 1496 1496 1496 1496 1496 1496 1495 1495 1496 1496 1496 1496 1497 1497 1498 1499 1500 1502 1503 1505 1507 1509 1511 1513 1515 1517 1519 1521 1523 1525 1527 1529 1531 1533 1534 1535
1491 1490 1488 1489 1490 1491 1492 1494 1495 1495 1494 1494 1494 1494 1495 1495 1494 1494 1493 1493 1493 1492 1492 1492 1493 1493 1494 1494 1495 1497 1498 1500 1501 1503 1506 1508 1510 1512 1514 1516 1518 1520 1522 1524 1526 1528 1530 1531 1533
1490 1490 1490 1491 1492 1493 1494 1494 1494 1493 1493 1493 1492 1492 1492 1492 1492 1491 1491 1490 1489 1489 1488 1488 1489 1489 1490 1490 1491 1492 1494 1496 1497 1499 1502 1504 1506 1508 1510 1512 1514 1516 1519 1521 1523 1525 1527 1529 1531
1490 1490 1490 1491 1492 1493 1493 1493 1493 1491 1490 1490 1490 1490 1489 1489 1489 1488 1487 1487 1486 1485 1484 1484 1484 1484 1485 1486 1487 1488 1490 1491 1493 1495 1498 1500 1502 1504 1506 1508 1510 1513 1515 1517 1519 1521 1523 1526 1528
1489 1490 1490 1490 1491 1491 1492 1491 1491 1487 1488 1488 1488 1487 1487 1486 1485 1485 1484 1483 1482 1481 1480 1480 1480 1480 1480 1481 1482 1483 1485 1487 1489 1491 1493 1495 1497 1500 1502 1504 1506 1509 1511 1513 1515 1517 1520 1522 1524
1489 1490 1489 1487 1488 1489 1491 1489 1486 1485 1485 1485 1485 1484 1484 1483 1482 1481 1480 1479 1478 1477 1476 1475 1475 1475 1475 1476 1477 1478 1480 1482 1484 1486 1488 1491 1493 1495 1497 1500 1502 1505 1507 1509 1512 1514 1516 1518 1520
1489 1490 1489 1484 1486 1487 1493 1490 1482 1482 1483 1483 1482 1481 1481 1480 1480 1479 1477 1476 1474 1473 1471 1471 1470 1470 1470 1471 1472 1473 1475 1477 1479 1481 1483 1486 1488 1490 1493 1495 1497 1500 1503 1505 1507 1509 1511 1513 1515
1488 1489 1486 1484 1484 1485 1488 1486 1482 1482 1481 1480 1480 1479 1478 1478 1477 1476 1474 1472 1470 1469 1468 1467 1466 1465 1465 1466 1467 1468 1470 1471 1474 1476 1478 1481 1483 1485 1488 1490 1493 1495 1498 1500 1502 1505 1507 1508 1510
1489 1488 1485 1485 1483 1483 1485 1482 1480 1480 1480 1478 1478 1477 1477 1476 1475 1473 1471 1469 1467 1466 1464 1463 1461 1461 1461 1461 1462 1463 1464 1466 1469 1471 1473 1476 1478 1480 1483 1485 1488 1490 1492 1494 1497 1500 1502 1504 1506
1487 1488 1487 1484 1481 1484 1482 1480 1477 1477 1477 1476 1476 1476 1475 1474 1473 1471 1469 1467 1464 1462 1460 1459 1458 1457 1456 1456 1457 1458 1459 1461 1464 1466 1468 1471 1473 1475 1477 1479 1482 1485 1487 1489 1492 1494 1497 1499 1502
1487 1488 1487 1483 1482 1483 1481 1477 1474 1474 1475 1475 1475 1475 1474 1473 1471 1469 1466 1463 1461 1459 1457 1455 1453 1453 1452 1452 1453 1454 1455 1457 1459 1461 1463 1465 1467 1470 1472 1474 1476 1479 1482 1484 1486 1489 1492 1494 1496
1486 1487 1487 1487 1485 1480 1481 1478 1472 1472 1473 1474 1474 1474 1473 1472 1470 1467 1464 1461 1458 1456 1454 1452 1450 1449 1448 1448 1449 1450 1452 1453 1455 1456 1458 1460 1462 1464 1466 1468 1471 1474 1476 1478 1481 1484 1486 1488 1491
1488 1484 1485 1486 1489 1488 1484 1488 1474 1471 1473 1473 1474 1473 1473 1471 1468 1465 1462 1458 1455 1453 1451 1448 1446 1445 1444 1445 1445 1446 1448 1449 1450 1452 1453 1455 1457 1459 1461 1463 1466 1468 1471 1473 1476 1478 1480 1483 1485
1487 1485 1486 1486 1488 1490 1483 1487 1477 1470 1473 1473 1473 1473 1472 1470 1467 1464 1460 1456 1453 1450 1447 1445 1443 1442 1441 1441 1442 1443 1444 1445 1447 1448 1449 1450 1452 1454 1456 1458 1460 1462 1465 1467 1470 1473 1475 1477 1479
1487 1486 1484 1485 1489 1491 1480 1483 1477 1472 1472 1472 1472 1472 1471 1469 1466 1463 1458 1454 1451 1448 1445 1442 1441 1439 1438 1438 1439 1440 1441 1442 1444 1444 1445 1446 1447 1449 1451 1453 1455 1457 1459 1462 1465 1467 1469 1471 1474
1488 1492 1492 1490 1489 1482 1472 1477 1476 1469 1470 1471 1472 1471 1470 1468 1465 1461 1457 1453 1449 1446 1443 1441 1439 1437 1436 1436 1436 1437 1438 1440 1440 1441 1442 1442 1443 1445 1447 1448 1450 1452 1454 1456 1459 1462 1464 1466 1468
1489 1491 1496 1494 1487 1480 1474 1476 1472 1469 1470 1471 1471 1471 1469 1467 1464 1461 1457 1453 1449 1446 1443 1441 1438 1436 1435 1434 1435 1436 1437 1438 1438 1438 1439 1439 1439 1441 1443 1444 1446 1447 1449 1451 1453 1456 1458 1460 1462
1489 1490 1490 1494 1488 1487 1475 1468 1469 1469 1470 1471 1471 1470 1468 1466 1464 1460 1457 1453 1450 1446 1443 1441 1438 1436 1435 1434 1434 1434 1435 1435 1435 1436 1436 1436 1437 1438 1439 1440 1441 1443 1445 1447 1448 1450 1452 1455 1457
1491 1490 1492 1493 1490 1484 1471 1467 1471 1472 1471 1470 1470 1469 1468 1466 1463 1460 1457 1453 1450 1447 1444 1440 1438 1436 1435 1434 1433 1433 1433 1433 1433 1434 1433 1433 1434 1434 1435 1435 1437 1439 1440 1442 1444 1446 1447 1449 1451
1490 1490 1490 1490 1488 1489 1483 1476 1466 1468 1469 1469 1469 1469 1467 1466 1463 1460 1457 1454 1451 1447 1444 1441 1438 1436 1434 1433 1432 1432 1432 1432 1432 1431 1431 1431 1431 1432 1431 1432 1433 1434 1436 1438 1439 1441 1442 1444 1445
1486 1486 1488 1493 1489 1485 1486 1481 1466 1466 1467 1468 1468 1468 1467 1465 1463 1460 1458 1454 1451 1447 1444 1441 1438 1436 1434 1433 1432 1431 1430 1430 1430 1430 1429 1429 1429 1428 1428 1429 1429 1431 1432 1433 1435 1436 1438 1439 1440